Wind_Speed
9 10 8 4 2 1 3 0 2 4 4 4 22 7 8 5 2 2 29 30 32 30 29 25 22 21 18 16 16 16 14 14 13 12 12 11 12 11 12 10 9 11 12 10 10 10 12 12 13
10 9 6 3 1 1 2 3 4 3 11 24 13 16 4 3 5 18 36 35 32 31 29 25 22 20 19 17 17 16 15 15 14 13 13 12 12 12 13 11 12 12 11 11 11 12 13 13 13
11 7 3 2 1 1 2 1 3 10 32 17 6 9 4 4 8 43 34 37 34 32 29 24 22 20 19 17 17 15 15 14 14 14 14 13 13 13 13 13 13 13 13 13 13 13 14 13 14
11 3 4 2 2 3 3 4 10 17 12 7 14 8 4 3 34 31 38 37 35 32 29 24 22 20 19 17 17 15 16 17 14 13 13 13 13 13 13 13 13 12 12 12 12 13 13 13 13
10 3 1 3 2 2 1 1 10 10 7 7 3 4 6 17 17 37 38 36 35 32 29 25 21 20 18 17 16 15 17 16 15 14 12 12 13 13 13 13 13 13 12 12 11 12 14 16 15
3 1 1 2 2 1 2 3 10 6 7 10 10 11 7 11 28 40 36 35 33 32 30 25 21 19 18 15 15 15 17 16 14 14 13 13 14 15 15 14 14 14 13 10 10 11 12 13 14
3 3 2 2 4 2 1 3 10 6 9 5 20 5 10 20 37 36 35 33 32 30 29 25 21 19 18 16 14 15 16 14 14 14 14 14 16 16 15 14 14 13 12 11 11 10 11 12 12
3 2 1 4 1 1 0 3 6 9 2 20 14 8 12 34 37 35 34 33 29 29 27 24 21 19 18 17 15 15 15 13 13 14 14 14 15 14 14 13 13 12 14 14 14 12 12 12 11
3 1 3 4 2 2 7 5 3 9 18 6 13 15 30 41 35 35 35 32 28 29 27 24 22 20 18 16 15 16 15 14 13 13 14 13 12 12 12 11 12 13 12 13 14 13 11 10 10
5 2 5 4 3 2 5 8 12 7 16 4 12 21 40 41 37 38 38 35 31 31 29 25 22 20 18 16 15 15 15 14 14 14 13 12 10 10 10 10 9 11 11 12 13 12 11 8 9
7 5 4 2 3 9 9 6 7 17 5 14 36 42 48 43 39 36 38 37 35 32 29 27 23 21 18 16 16 15 15 16 13 13 12 10 7 7 8 9 8 9 10 9 10 12 9 7 8
4 12 13 5 6 4 5 10 5 16 5 19 30 49 54 44 42 38 41 39 36 33 30 27 24 21 18 16 15 15 15 13 12 12 11 9 8 7 8 10 9 9 9 8 7 7 7 5 4
9 3 3 11 13 15 7 10 6 16 1 15 34 43 44 40 38 37 40 38 36 34 31 28 25 22 19 17 17 16 15 14 12 10 10 9 8 6 7 9 7 6 5 7 7 6 5 5 7
10 13 13 13 16 12 6 3 7 9 12 29 42 43 41 40 40 42 40 38 37 33 31 28 25 23 21 18 17 17 15 16 12 12 11 10 7 5 5 7 5 6 6 4 5 4 5 8 6
14 4 4 8 7 7 9 2 5 15 22 35 36 39 38 38 43 46 43 41 38 35 32 29 26 23 22 20 18 19 16 16 11 11 9 9 5 6 6 5 7 6 4 2 4 5 4 7 4
5 4 1 4 10 7 15 9 3 24 30 31 33 37 36 35 43 44 42 40 38 35 34 30 27 25 23 22 21 20 17 14 11 10 9 8 6 6 3 5 7 6 5 3 4 3 4 6 7
5 4 7 3 8 3 9 5 10 25 27 28 32 35 36 33 35 40 43 40 38 36 35 32 30 27 26 23 23 21 17 14 13 12 9 7 4 4 3 3 7 5 5 2 1 2 3 4 7
5 4 4 6 7 8 7 8 13 23 25 27 31 34 35 36 39 40 41 40 37 37 35 32 31 29 29 24 24 22 18 16 15 14 13 9 6 4 5 5 5 4 2 2 4 1 3 6 8
5 5 6 4 5 6 11 10 15 22 21 23 28 31 35 36 37 37 41 39 38 37 37 35 32 32 31 31 29 26 22 18 17 17 13 11 8 5 4 5 4 5 4 5 6 4 2 6 8
7 3 4 4 3 6 6 14 10 18 26 31 30 32 34 31 34 37 39 40 41 39 39 37 35 35 34 33 31 29 24 19 17 17 15 13 10 8 6 4 6 5 4 4 4 3 6 5 7
8 16 6 3 2 7 4 5 6 13 13 21 25 32 31 36 38 38 43 44 42 43 42 40 37 37 36 33 31 29 26 24 22 20 17 14 12 11 9 6 5 7 5 4 3 2 8 5 7
9 15 12 7 2 4 8 5 5 8 17 18 27 32 31 36 37 38 41 46 48 46 43 41 39 39 37 35 33 31 29 28 27 24 21 18 14 12 11 9 6 7 7 5 4 6 7 6 7
11 9 14 12 6 4 4 3 6 11 12 19 25 34 35 37 40 43 47 48 49 46 45 44 43 42 40 38 37 34 33 30 29 28 26 24 21 17 14 12 10 7 7 8 9 8 9 7 10
6 1 4 3 4 9 12 7 5 7 16 18 24 32 35 38 42 45 46 44 46 47 46 46 45 45 42 41 39 39 38 34 31 29 31 30 26 23 19 16 13 10 8 8 10 8 8 10 11
13 10 2 3 5 13 11 12 13 5 12 18 21 35 38 39 38 44 45 47 48 49 50 50 50 47 46 42 39 39 41 36 31 28 25 30 32 29 25 21 17 13 10 9 11 12 10 12 14
14 10 6 8 4 12 6 8 7 20 16 22 30 33 31 34 39 40 47 50 51 51 51 52 52 50 48 45 41 38 39 39 35 30 26 25 28 27 22 20 18 15 12 11 12 13 14 13 13
7 17 11 4 1 1 9 5 7 6 19 20 20 22 31 40 44 48 44 49 51 52 54 54 53 53 46 47 43 40 38 41 39 33 29 26 25 25 24 19 19 18 16 15 14 15 15 15 17
8 3 8 3 7 5 3 7 10 11 10 13 7 20 31 39 47 38 42 48 51 50 53 55 55 53 48 46 46 42 39 38 40 36 32 29 27 26 25 23 21 20 19 18 19 18 17 18 17
4 9 5 7 8 8 2 6 6 12 15 15 13 28 31 37 43 47 49 50 49 48 50 54 56 56 54 48 47 44 40 38 41 39 34 31 28 26 27 26 24 22 21 20 20 19 19 18 17
5 5 7 8 12 6 4 7 4 10 9 13 21 33 35 38 45 47 47 47 46 49 50 54 55 55 52 49 48 48 44 40 40 41 35 31 31 29 27 27 25 25 25 24 22 22 22 21 22
Wind_Direction
161 161 158 182 227 233 269 137 97 99 97 140 141 151 152 76 157 169 147 153 154 148 146 145 144 138 132 131 127 124 126 123 125 127 131 132 133 132 127 124 119 118 115 108 103 91 97 111 117
161 157 181 271 279 274 334 6 30 136 120 127 104 116 89 91 116 143 149 155 157 152 151 147 146 139 136 134 128 124 126 125 124 125 127 126 126 130 126 123 121 120 111 110 97 104 103 109 114
157 167 277 257 171 205 242 73 322 119 142 131 105 98 75 118 147 149 155 155 158 156 153 149 149 142 140 136 130 133 131 128 126 125 123 126 127 128 128 121 120 114 105 101 104 108 105 103 111
156 191 276 266 228 225 210 336 119 123 115 118 121 74 74 164 148 156 155 157 160 158 155 152 149 146 143 138 138 135 131 127 127 126 125 124 122 125 129 123 118 113 109 106 104 112 111 109 110
160 200 283 282 258 258 188 105 127 130 91 71 79 106 89 127 159 155 156 160 162 159 159 155 150 149 145 138 133 134 132 127 123 119 123 125 124 123 122 123 117 110 104 109 119 119 117 111 114
172 144 125 238 256 280 5 46 138 102 116 130 101 112 132 157 158 155 158 161 162 161 160 157 153 151 145 142 137 136 135 132 128 122 120 119 120 118 118 121 117 106 98 104 122 131 129 115 115
178 130 234 266 242 158 210 13 141 117 134 143 143 100 141 158 159 157 160 162 161 162 162 160 158 154 149 146 143 140 136 137 135 131 127 121 121 119 118 118 110 100 95 91 115 125 131 124 118
203 125 276 244 272 198 156 88 118 105 99 134 155 162 169 167 161 160 161 161 163 165 167 164 162 158 154 152 150 145 140 141 140 136 129 129 129 124 119 114 111 100 91 90 100 106 121 117 107
200 288 237 251 201 160 152 148 130 122 143 156 179 161 166 163 161 160 162 162 166 170 170 169 167 162 158 155 153 150 144 147 143 137 133 133 133 129 122 120 116 105 97 96 101 103 112 106 100
204 189 226 221 166 166 157 171 140 144 156 99 129 152 161 161 165 164 167 168 172 172 173 171 171 166 162 160 160 154 147 148 141 135 132 132 136 140 136 129 120 120 112 104 108 109 101 97 99
186 215 222 307 128 144 151 142 152 147 208 179 151 154 163 164 169 169 173 174 176 174 174 174 174 170 167 165 164 156 150 149 145 143 139 133 137 151 147 137 122 128 129 125 120 107 113 113 104
210 231 259 311 335 320 176 159 159 171 217 208 184 171 167 168 171 174 177 178 179 178 176 175 176 173 170 170 165 160 157 158 148 144 137 133 133 138 144 146 142 134 131 135 135 133 138 170 146
234 210 249 246 283 300 189 176 185 205 230 167 166 167 169 169 173 179 181 182 181 181 177 177 177 174 174 174 168 162 159 157 157 153 138 146 140 151 157 142 135 119 139 154 146 136 120 120 168
227 239 277 284 274 280 235 155 183 160 170 159 164 167 173 175 178 182 185 185 186 184 181 179 179 176 180 176 175 168 165 170 150 142 133 138 124 143 174 186 152 141 134 150 165 165 114 123 120
246 312 319 234 235 232 215 280 220 171 166 157 166 170 176 180 184 188 188 190 187 187 184 184 181 179 183 179 178 172 162 165 163 157 142 131 139 146 151 139 151 147 159 151 159 138 145 147 131
180 113 193 276 184 240 166 239 119 161 155 166 170 176 180 185 193 193 193 193 193 190 190 188 186 184 184 181 178 173 175 178 183 171 158 151 149 172 158 175 166 157 157 125 137 117 116 144 156
358 195 197 285 201 158 182 222 158 167 167 174 177 180 184 189 195 199 201 198 198 195 193 192 191 189 184 182 184 188 189 197 199 201 189 177 164 178 182 188 192 179 161 163 122 127 102 133 155
202 220 222 174 207 183 196 220 161 174 174 181 181 186 188 194 197 202 206 203 203 202 199 198 196 193 190 189 190 193 200 201 201 200 197 184 181 174 175 198 205 189 203 213 172 138 106 149 166
167 196 216 212 204 142 201 222 178 178 182 185 186 190 196 199 198 202 209 209 208 207 204 203 201 197 196 196 197 201 206 204 204 208 210 197 193 192 191 222 231 212 244 218 184 171 184 170 188
232 241 252 289 226 176 214 233 178 179 197 194 187 192 200 196 199 203 206 211 212 208 208 206 207 202 200 202 204 211 213 209 213 217 215 210 209 211 212 228 232 234 242 220 231 243 217 173 181
219 229 227 209 351 211 136 292 179 199 194 200 205 208 200 198 196 201 205 213 216 215 212 209 208 204 203 204 206 212 215 218 220 219 222 222 222 224 225 229 229 234 256 242 250 223 194 200 186
213 216 239 254 320 218 166 259 234 184 197 202 205 208 203 202 202 204 205 213 216 217 216 212 208 207 207 209 213 216 219 221 225 231 235 237 236 233 231 229 237 243 239 234 247 224 209 218 201
236 162 206 230 212 299 226 197 257 186 202 209 208 210 209 206 204 204 210 213 219 222 221 218 216 215 215 216 220 223 224 227 231 234 237 240 242 240 236 235 236 241 236 234 239 234 224 229 210
175 331 136 117 138 236 226 213 255 191 210 214 213 213 209 207 209 211 214 211 217 221 225 222 220 220 219 221 225 229 230 231 234 239 239 239 242 243 239 238 238 241 238 233 234 244 234 225 225
180 157 267 228 201 234 207 223 233 197 220 210 204 211 210 208 208 210 211 211 214 219 223 226 223 222 223 224 225 231 231 233 236 240 246 239 241 243 240 238 238 235 232 233 235 237 235 236 235
202 180 170 196 193 228 182 225 238 225 239 222 218 213 206 206 212 208 214 216 218 220 221 224 225 221 224 226 227 230 234 234 236 239 244 245 241 240 240 234 230 225 228 235 240 241 237 240 241
211 210 194 99 240 178 202 243 294 243 220 229 225 199 202 205 210 215 208 215 217 221 223 224 224 222 223 224 226 229 234 236 236 239 241 244 244 236 234 228 223 225 232 238 243 244 241 245 247
196 259 197 198 196 241 263 193 228 198 224 234 207 195 209 208 215 212 207 214 219 223 224 226 227 224 222 224 225 228 232 237 239 240 241 243 241 235 229 229 226 229 234 239 243 245 244 246 250
189 226 267 179 200 213 173 245 217 192 200 222 209 216 212 208 208 212 213 216 219 217 221 225 227 226 225 226 226 228 231 235 239 241 241 242 241 237 229 229 227 229 234 239 244 243 244 248 254
318 278 236 224 221 234 146 247 207 210 213 223 216 218 226 221 214 214 215 208 208 216 214 221 226 226 226 228 230 231 231 234 237 239 240 241 240 237 233 230 229 229 227 229 237 241 243 249 256
Height
1505 1506 1507 1508 1511 1509 1504 1499 1497 1498 1500 1501 1507 1509 1513 1514 1517 1528 1526 1532 1537 1539 1543 1547 1549 1551 1553 1555 1556 1557 1558 1559 1561 1562 1563 1564 1566 1568 1569 1569 1570 1571 1572 1572 1572 1571 1571 1571 1572
1506 1507 1508 1507 1509 1514 1508 1496 1498 1495 1498 1503 1507 1510 1513 1518 1518 1521 1526 1533 1538 1541 1545 1548 1551 1553 1555 1557 1558 1560 1560 1562 1563 1564 1565 1567 1568 1569 1571 1571 1572 1573 1573 1573 1574 1574 1574 1574 1575
1507 1508 1509 1506 1508 1512 1510 1495 1494 1496 1498 1501 1509 1512 1515 1518 1518 1521 1527 1533 1539 1543 1546 1550 1552 1555 1557 1559 1561 1561 1562 1564 1565 1566 1568 1569 1570 1572 1573 1574 1574 1575 1575 1575 1575 1576 1576 1577 1577
1507 1510 1510 1508 1507 1498 1497 1493 1492 1498 1504 1504 1508 1515 1518 1518 1519 1524 1529 1534 1540 1545 1548 1551 1554 1557 1558 1561 1562 1564 1565 1566 1567 1569 1570 1571 1573 1575 1575 1576 1577 1577 1576 1577 1578 1578 1579 1579 1580
1508 1508 1510 1510 1503 1496 1492 1493 1495 1498 1503 1507 1509 1517 1520 1521 1522 1525 1532 1536 1541 1545 1550 1552 1556 1559 1560 1562 1564 1566 1567 1568 1569 1571 1573 1574 1575 1576 1577 1579 1579 1579 1580 1580 1580 1581 1581 1582 1583
1506 1508 1515 1512 1503 1494 1494 1495 1496 1499 1505 1509 1512 1517 1522 1523 1525 1528 1534 1538 1543 1546 1550 1554 1557 1560 1562 1565 1566 1568 1569 1570 1572 1573 1575 1576 1578 1579 1580 1581 1581 1582 1582 1582 1582 1582 1584 1585 1586
1505 1508 1510 1506 1500 1496 1496 1495 1495 1500 1505 1508 1510 1518 1523 1525 1528 1530 1536 1541 1545 1549 1552 1555 1558 1561 1563 1566 1568 1569 1571 1573 1574 1575 1577 1579 1580 1581 1582 1583 1583 1584 1584 1583 1583 1584 1586 1587 1588
1504 1505 1507 1505 1497 1497 1494 1495 1497 1499 1506 1507 1510 1514 1520 1521 1528 1532 1537 1542 1546 1550 1553 1556 1559 1562 1564 1567 1570 1571 1573 1575 1576 1578 1579 1581 1582 1584 1585 1585 1585 1586 1586 1586 1586 1586 1587 1589 1590
1502 1507 1510 1500 1495 1491 1491 1494 1496 1500 1502 1507 1509 1508 1514 1520 1529 1533 1538 1543 1547 1550 1554 1557 1560 1563 1565 1568 1570 1572 1574 1576 1578 1580 1582 1583 1585 1586 1587 1587 1587 1587 1588 1589 1589 1589 1590 1591 1592
1501 1506 1499 1489 1486 1489 1490 1491 1494 1500 1503 1507 1508 1510 1515 1522 1528 1532 1536 1540 1545 1549 1553 1557 1561 1563 1566 1569 1571 1573 1575 1578 1580 1581 1583 1585 1586 1588 1589 1589 1590 1590 1590 1591 1592 1592 1593 1593 1594
1497 1500 1490 1487 1488 1489 1491 1492 1492 1496 1502 1500 1501 1507 1514 1519 1527 1532 1535 1539 1543 1548 1553 1556 1560 1564 1567 1569 1572 1574 1577 1580 1582 1583 1585 1586 1588 1589 1591 1591 1591 1592 1592 1593 1594 1594 1595 1595 1595
1496 1489 1489 1487 1486 1489 1489 1490 1492 1493 1492 1493 1499 1500 1507 1515 1522 1527 1532 1537 1542 1547 1552 1556 1560 1564 1567 1570 1573 1575 1578 1581 1583 1585 1586 1587 1589 1590 1591 1593 1593 1594 1594 1594 1595 1596 1597 1597 1597
1491 1489 1488 1488 1487 1485 1487 1486 1489 1491 1492 1494 1501 1508 1512 1517 1523 1528 1532 1538 1542 1546 1551 1555 1559 1564 1567 1570 1573 1576 1579 1581 1584 1586 1587 1588 1589 1591 1593 1594 1594 1595 1595 1595 1596 1597 1598 1598 1598
1482 1487 1489 1488 1487 1486 1485 1486 1488 1490 1491 1496 1499 1505 1512 1517 1521 1526 1531 1535 1540 1545 1550 1555 1559 1563 1567 1570 1573 1576 1579 1581 1584 1586 1587 1588 1590 1592 1593 1594 1595 1596 1596 1597 1598 1598 1598 1599 1600
1483 1488 1487 1485 1484 1485 1484 1487 1486 1487 1491 1496 1502 1507 1511 1516 1519 1521 1527 1532 1537 1543 1549 1553 1558 1562 1566 1570 1574 1576 1579 1582 1584 1587 1588 1590 1591 1592 1593 1595 1596 1596 1597 1598 1597 1599 1599 1600 1601
1485 1487 1496 1480 1479 1481 1484 1491 1486 1487 1490 1497 1501 1506 1511 1516 1519 1523 1527 1532 1537 1542 1546 1552 1557 1561 1565 1569 1573 1576 1579 1581 1584 1587 1589 1590 1591 1593 1594 1596 1596 1597 1597 1598 1599 1600 1600 1601 1602
1492 1498 1493 1486 1476 1477 1483 1486 1485 1487 1491 1496 1500 1504 1509 1515 1519 1522 1526 1531 1536 1540 1545 1550 1555 1559 1564 1568 1572 1575 1578 1581 1584 1587 1589 1590 1591 1593 1594 1595 1596 1597 1598 1598 1599 1600 1600 1601 1603
1497 1495 1484 1484 1475 1476 1482 1481 1484 1487 1489 1494 1497 1502 1505 1509 1513 1520 1525 1530 1535 1540 1544 1549 1553 1558 1563 1567 1571 1574 1577 1579 1582 1585 1588 1590 1591 1593 1593 1595 1596 1597 1598 1599 1600 1601 1602 1603 1604
1480 1483 1482 1475 1469 1474 1478 1476 1482 1484 1490 1493 1495 1499 1502 1505 1512 1519 1523 1528 1533 1537 1542 1546 1550 1554 1559 1564 1568 1571 1574 1578 1581 1584 1587 1589 1591 1592 1594 1595 1596 1597 1597 1599 1600 1601 1602 1603 1604
1483 1484 1483 1474 1467 1472 1474 1474 1477 1479 1478 1481 1488 1491 1496 1505 1510 1515 1519 1523 1527 1532 1537 1542 1546 1551 1556 1561 1565 1569 1573 1576 1581 1583 1586 1588 1590 1592 1594 1595 1596 1597 1598 1599 1600 1601 1602 1603 1605
1483 1484 1484 1478 1469 1468 1473 1481 1479 1477 1480 1485 1487 1488 1494 1498 1501 1508 1514 1517 1523 1527 1531 1537 1542 1547 1552 1558 1563 1567 1571 1574 1578 1581 1584 1586 1588 1591 1593 1595 1596 1597 1597 1600 1600 1600 1602 1603 1605
1492 1470 1477 1481 1483 1487 1469 1502 1478 1471 1475 1477 1480 1483 1487 1491 1497 1502 1508 1511 1515 1520 1528 1533 1539 1544 1549 1554 1559 1563 1566 1570 1574 1579 1582 1585 1587 1589 1591 1594 1595 1596 1598 1599 1600 1601 1602 1603 1605
1467 1467 1475 1479 1485 1481 1474 1487 1471 1466 1473 1469 1470 1473 1479 1484 1488 1493 1498 1503 1510 1517 1523 1529 1535 1540 1545 1550 1554 1559 1563 1568 1572 1576 1580 1582 1585 1587 1590 1593 1595 1596 1597 1599 1599 1601 1602 1603 1605
1459 1466 1473 1480 1490 1499 1475 1476 1473 1467 1457 1456 1461 1465 1470 1476 1480 1485 1492 1500 1505 1512 1517 1523 1528 1534 1540 1544 1550 1554 1559 1563 1568 1572 1576 1579 1582 1585 1587 1591 1593 1595 1596 1597 1599 1600 1601 1603 1604
1459 1472 1501 1506 1503 1481 1468 1473 1458 1443 1439 1441 1446 1452 1459 1466 1473 1478 1485 1491 1497 1503 1509 1516 1522 1527 1533 1539 1544 1549 1554 1559 1564 1568 1571 1575 1577 1580 1584 1588 1591 1592 1594 1595 1597 1599 1600 1601 1602
1455 1464 1486 1502 1497 1475 1470 1469 1448 1431 1433 1434 1437 1443 1454 1461 1465 1469 1474 1481 1489 1495 1502 1507 1513 1520 1526 1532 1538 1544 1549 1554 1559 1563 1567 1570 1573 1576 1581 1585 1588 1590 1591 1593 1595 1596 1598 1600 1600
1450 1454 1449 1470 1472 1479 1452 1451 1434 1428 1427 1428 1430 1440 1444 1448 1453 1454 1464 1472 1479 1486 1493 1499 1506 1513 1519 1526 1532 1538 1543 1548 1553 1558 1562 1566 1570 1573 1577 1581 1584 1587 1589 1591 1593 1594 1595 1597 1598
1447 1439 1457 1467 1477 1482 1459 1453 1435 1432 1429 1424 1427 1430 1433 1437 1442 1451 1455 1459 1467 1475 1485 1492 1499 1505 1512 1520 1525 1531 1537 1542 1547 1552 1557 1561 1566 1570 1573 1577 1580 1583 1586 1588 1590 1592 1593 1594 1594
1442 1442 1442 1440 1454 1459 1473 1450 1422 1421 1417 1418 1418 1419 1422 1427 1431 1437 1442 1448 1456 1468 1476 1483 1490 1498 1505 1512 1518 1524 1530 1536 1541 1546 1551 1556 1561 1566 1569 1572 1576 1579 1581 1584 1586 1588 1590 1591 1592
1453 1448 1436 1439 1451 1447 1456 1440 1408 1407 1408 1408 1406 1410 1413 1417 1422 1427 1433 1442 1449 1456 1464 1472 1481 1488 1496 1504 1511 1517 1524 1529 1534 1539 1545 1550 1555 1561 1564 1567 1571 1574 1577 1579 1581 1583 1585 1587 1588